Погода в Орлянском

Украина / Запорожская область     47°20′19″N   35°05′36″E
темп.,
°C
ветер,
м/с
пор.,
м/с
влажн.,
%
обл.,
%
осадки,
мм/ч
давл.,
гПа
погр.,
м
22 апреля, чт
чт2200:00+8юз48903 0.0 1019163
03:00+7юз34925 0.0 102063
06:00+6ююз33925 0.0 102145
09:00+12ююз34725 0.0 1021486
12:00+15ююз445510 0.1 10211502
15:00+17юз3345100 0.1 10202023
18:00+13ю5870100 0.9 1021243
21:00+10ююз410825 1.1 1022255
23 апреля, пт
пт2300:00+8ююз48880 0.0 1022167
03:00+7ююз48920 0.0 1022162
06:00+7ю489224 0.0 1021144
09:00+12ююз696898 0.0 1021532
12:00+16ююз7951100 0.0 10201312
15:00+17ююз7847100 0.0 10182132
18:00+14юз6960100 0.1 1017534
21:00+11зюз3772100 0.2 1018287
24 апреля, сб
сб2400:00+10юз499197 0.9 1017574
03:00+6сз489173 1.2 1018354
06:00+5сз36920 0.0 1019155
09:00+9зсз56691 0.0 1020736
12:00+12зсз68465 0.0 10201801
15:00+13зсз71036100 0.0 10192632
18:00+12зсз6104784 0.0 10192140
21:00+6ссз356819 0.0 1023108
25 апреля, вс
вс2500:00+5сз226642 0.0 102324
03:00+4сз226597 0.0 102316
06:00+3сз11654 0.0 102310
09:00+8зсз11473 0.0 1023674
12:00+12зсз123746 0.0 10221716
15:00+13с223717 0.0 10201828
18:00+12ссв3243100 0.0 1019637
21:00+8юв3351100 0.0 102041
26 апреля, пн
пн2600:00+6юз3567100 0.0 102085
03:00+5юз366728 0.0 1019104
06:00+5з358430 0.0 101893
09:00+10сз3472100 0.0 1019922
12:00+7сз4684100 0.4 1019721
15:00+11с446237 0.4 10181148
18:00+12зсз244926 0.0 10181663
21:00+8ююз226498 0.0 101812